DMSP 5D-2 F13 DEB, 40462

Orbit data source: Space-Track

DMSP 5D-2 F13 DEB, 40462 is space debris in SSO originally from a launch on Fri, 24 Mar 1995 UTC launched from the Air Force Western Test Range (AFWTR). Debris objects in space refer to the collection of defunct objects orbiting the Earth. Examples of debris include non-operational satellites, rocket bodies, and fragments generated from explosions, collisions, or faulty payload assembly.

Loading next visibility...
Identifier
40462, 1995-015BE
Orbit
SSO
Country
Flag of USUS
Related business
Manufacturer
Unknown
Mission
Spacecraft
Bus & Motor
Unknown
Mass
Unknown
Launch date (UTC)
1995-03-24 (31 years ago)
Launch vehicle
Unknown
Launch site
Air Force Western Test Range (AFWTR)
Object type
Payload
Rocket body
Debris
Shape & HBR
Unknown shape, 0.1 m
Radar Cross Section
Small (<0.1 m²)

Expand to show TLE details & history
Last TLE update: 3 days ago

TLE from 3 days ago
0 DMSP 5D-2 F13 DEB
1 40462U 95015BE  26116.05581945  .00011945  00000-0  33020-2 0  9999
2 40462  98.9506 160.0066 0036588 158.3639 201.9106 14.46463009574269
Epoch: 2026-04-26T01:20Z
TLE epoch observation values (Epoch: 2026-04-26T01:20:22.800Z)
Latitude
-0.00011°
Longitude
-74.15371°
Altitude
764.338 km
Speed
7.459 km/s
True Right ascension
10h 40m 01s
True Declination
0° 00' 00"
Sunlit
Object was in full shadow at epoch
Visualization orbit readout
Latitude
Unknown
Longitude
Unknown
Altitude
Unknown
Speed
Unknown
Apparent Right ascension
Unknown
Apparent Declination
Unknown
Sunlit
N/A
Visualization observer readout
Local Sidereal Time
18:51:52
Azimuth
Unknown
Elevation
Unknown
Doppler factor
Unknown
Orbital elements
Apogee altitude
760.383 km
Perigee altitude
708.336 km
Semi-major axis
7,112.496 km
Eccentricity
0.00366
Inclination
98.9506°
RAAN
160.0066°
Arg. of periapsis
158.3639°
True anomaly
201.75481°
Mean anomaly
201.9106°
Eccentric anomaly
201.83264°
Mean motion
3.61835 °/min
Orbital period
99.49 mins
BSTAR
0.003302

Documentation

Showing up to 5 results
|